Fitchburg, MA

11:21 AM EDT on June 22, 2017 (GMT -0400)
Fitchburg Municipal

Weather History for KFIT - April, 2014

Change the Weather History Date:

Saturday, April 5, 2014

  Actual Average (KORH) Record (KORH)
Temperature  
Mean Temperature 44 °F -  
Max Temperature 51 °F 50 °F 80 °F (1928)
Min Temperature 36 °F 33 °F 12 °F (1995)
Degree Days  
Heating Degree Days 22    
Moisture  
Dew Point 32 °F    
Average Humidity 74    
Maximum Humidity 93    
Minimum Humidity 41    
Precipitation  
Precipitation 0.10 in - - ()
Sea Level Pressure  
Sea Level Pressure 29.80 in    
Wind  
Wind Speed 8 mph (NW)    
Max Wind Speed 21 mph    
Max Gust Speed 34 mph    
Visibility 9 miles    
Events Rain    
Averages and records for this station are not official NWS values.
T = Trace of Precipitation, MM = Missing Value Source: NWS Daily Summary

Daily Weather History Graph

Daily Weather History Graph

Search for Another Location

Airport or City:

Trip Planner

Search our weather history database for the weather conditions in past years. The results will help you decide how hot, cold, wet, or windy it might be!

Date:

Astronomy

Apr. 05, 2014 Rise Set
Actual Time 6:22 AM EDT 7:17 PM EDT
Civil Twilight 5:53 AM EDT 7:46 PM EDT
Nautical Twilight 5:19 AM EDT 8:20 PM EDT
Astronomical Twilight 4:44 AM EDT 8:56 PM EDT
Moon 10:23 AM EDT (4/5) 12:29 AM EDT (4/5)
Length of Visible Light 13h 52m
Length of Day
12h 54m
Waxing Crescent, 34% of the Moon is Illuminated
Apr 5
Waxing Crescent
Apr 7
First Quarter
Apr 15
Full
Apr 22
Last Quarter
Apr 29
New

Hourly Weather History & Observations

Time (EDT) Temp. Windchill Dew Point Humidity Pressure Visibility Wind Dir Wind Speed Gust Speed Precip Events Conditions
12:14 AM 37.0 °F 32.4 °F 34.0 °F 89% 29.88 in 6.0 mi ENE 5.8 mph - 0.00 in Rain Light Rain
12:35 AM 37.0 °F 33.3 °F 34.0 °F 89% 29.87 in 5.0 mi NE 4.6 mph - 0.01 in Rain Light Rain
12:52 AM 37.0 °F 32.4 °F 34.0 °F 89% 29.87 in 3.0 mi East 5.8 mph - 0.01 in Rain Light Rain
1:52 AM 37.0 °F 32.4 °F 35.1 °F 93% 29.84 in 4.0 mi North 5.8 mph - 0.02 in Rain Light Rain
1:59 AM 37.0 °F 32.4 °F 34.0 °F 89% 29.84 in 5.0 mi NNE 5.8 mph - 0.00 in Rain Light Rain
2:18 AM 37.0 °F 34.5 °F 35.1 °F 93% 29.83 in 2.5 mi NE 3.5 mph - 0.04 in Rain Rain
2:35 AM 37.0 °F 34.5 °F 35.1 °F 93% 29.82 in 5.0 mi NE 3.5 mph - 0.07 in Rain Light Rain
2:50 AM 37.4 °F 34.9 °F 35.6 °F 93% 29.82 in 10.0 mi North 3.5 mph - 0.07 in   Overcast
2:52 AM 37.0 °F 34.5 °F 35.1 °F 93% 29.83 in 10.0 mi Variable 3.5 mph - 0.07 in   Overcast
3:27 AM 37.0 °F 32.4 °F 35.1 °F 93% 29.78 in 10.0 mi North 5.8 mph - 0.00 in   Mostly Cloudy
3:52 AM 37.0 °F 34.5 °F 35.1 °F 93% 29.77 in 10.0 mi NNW 3.5 mph - 0.00 in   Overcast
4:52 AM 37.0 °F 33.3 °F 35.1 °F 93% 29.76 in 10.0 mi NNW 4.6 mph - N/A   Overcast
5:52 AM 37.0 °F 33.3 °F 35.1 °F 93% 29.74 in 5.0 mi NW 4.6 mph - N/A   Overcast
6:28 AM 37.0 °F 32.4 °F 35.1 °F 93% 29.72 in 8.0 mi NW 5.8 mph - N/A   Overcast
6:52 AM 37.9 °F 32.7 °F 35.1 °F 89% 29.73 in 10.0 mi NW 6.9 mph - N/A   Overcast
7:52 AM 39.0 °F 35.7 °F 36.0 °F 89% 29.74 in 10.0 mi NNW 4.6 mph - N/A   Overcast
8:42 AM 41.0 °F 38.0 °F 36.0 °F 82% 29.73 in 10.0 mi WNW 4.6 mph - N/A   Overcast
8:52 AM 41.0 °F 38.0 °F 37.0 °F 86% 29.74 in 10.0 mi WNW 4.6 mph - N/A   Overcast
9:52 AM 43.0 °F 38.8 °F 37.9 °F 82% 29.74 in 10.0 mi WNW 6.9 mph - N/A   Overcast
10:27 AM 44.1 °F 37.4 °F 37.9 °F 79% 29.74 in 10.0 mi WNW 13.8 mph - N/A   Overcast
10:52 AM 46.0 °F 41.4 °F 37.9 °F 73% 29.74 in 10.0 mi NW 9.2 mph - N/A   Mostly Cloudy
11:14 AM 48.0 °F - 37.0 °F 66% 29.72 in 10.0 mi WNW 17.3 mph 21.9 mph N/A   Scattered Clouds
11:52 AM 50.0 °F - 35.1 °F 57% 29.73 in 10.0 mi West 20.7 mph 25.3 mph N/A   Mostly Cloudy
12:52 PM 48.9 °F - 33.1 °F 54% 29.73 in 10.0 mi NW 13.8 mph 19.6 mph N/A   Overcast
1:52 PM 48.0 °F - 33.1 °F 56% 29.74 in 10.0 mi NW 11.5 mph 18.4 mph N/A   Overcast
2:52 PM 45.0 °F 38.5 °F 30.0 °F 56% 29.75 in 10.0 mi West 13.8 mph 26.5 mph N/A   Overcast
3:52 PM 46.9 °F - 28.9 °F 50% 29.76 in 10.0 mi WNW 15.0 mph 31.1 mph N/A   Overcast
4:52 PM 48.9 °F - 26.1 °F 41% 29.78 in 10.0 mi West 15.0 mph 25.3 mph N/A   Overcast
5:52 PM 45.0 °F 36.9 °F 24.1 °F 44% 29.82 in 10.0 mi West 20.7 mph 34.5 mph N/A   Mostly Cloudy
6:52 PM 42.1 °F 34.9 °F 23.0 °F 47% 29.86 in 10.0 mi West 13.8 mph 29.9 mph N/A   Overcast
7:52 PM 39.9 °F 31.4 °F 21.9 °F 49% 29.88 in 10.0 mi WNW 16.1 mph 26.5 mph N/A   Overcast
8:52 PM 39.0 °F 29.6 °F 21.9 °F 50% 29.91 in 10.0 mi WNW 18.4 mph 29.9 mph N/A   Clear
9:52 PM 37.9 °F 27.9 °F 21.9 °F 53% 29.92 in 10.0 mi West 19.6 mph 27.6 mph N/A   Clear
10:52 PM 37.0 °F 29.3 °F 21.0 °F 52% 29.94 in 10.0 mi WNW 11.5 mph - N/A   Clear
11:52 PM 36.0 °F 28.0 °F 21.9 °F 57% 29.95 in 10.0 mi NW 11.5 mph - N/A   Clear